"Pseudo-MPEC" for P113jPL

Created 2020 Aug 11 22:07:20 UT using Find_Orb

Click here for an explanation of pseudo-MPECs

 
 Astrometry: 
     P113jPL  C2020 07 29x1G2TH,lAstrometryK@5jARX3iYburedacted;O368uf@VxFT0mF51
     P113jPL  C2020 07 29@doLVAGr0knc#[,\C(1V#+^Da]Domki1:A5=mF.;/1v;mtwX*o5jF51
     P113jPL  C2020 07 29TY+7W!^HjIc`jx#7x1S-vO#C#!.J7R$J]o(^S*)VGCF!]x2j,ctcF51
     P113jPL  C2020 07 29,w=._gy7kIu`Q3m6pI]:I];-\'wBjq+QI9bj85aOvmbC]Ym@MXh#F51
     P113jPL  C2020 08 10:IU6nuE)w^lgvl#7uS^]vApCC:te=h5L$)-y(6Pf(rNO-I(FaXgWF51
     P113jPL  C2020 08 10V]UpW@gE/:#l!t7-:clickt%VHTL6d3n+DJiytF@bl)VIvWLpH3eF51
     P113jPL  C2020 08 10B8uEF9q\#^*c(/R()xkD+!n[XtR'-q#ylHE,s[c1eL:t$vXWR#!7F51
     P113jPL  C2020 08 11%Is]w%*vB]hj(hereN=8forO)CWC?iTKm/crY6/V;N;7pxY:[.XxF51
     P113jPL  C2020 08 11b[+9;K(oPO%9G8OWnD_explanationc5/boIwW\OWD1uO$7T`,_6F51
     P113jPL  C2020 08 11ex]#(nLS5QefNBXSiN)m?^-wCku[IWOu8]0.ys?jouHukv%8p=FvF51

Station data:
(F51) Pan-STARRS 1, Haleakala  (N20.707235 W156.255910)  US/Hawaii.
   Observers N. Primak, A. Schultz, S. Watters, J. Thiel, T. Goggia. Measurer
   PS1 Science Consortium. 1.8-m Ritchey-Chrétien + CCD.

Orbital elements:  P113jPL
   Perihelion 2020 Jul 16.012229 +/- 0.446 TT =  0:17:36 (JD 2459046.512229)
Epoch 2020 Aug 11.0 TT = JDT 2459072.5   Earth MOID: 0.1042   AutoNEOCP
M  17.80442297 +/- 0.18             (J2000 ecliptic)
n   0.68510774 +/- 0.00561          Peri.  181.57383 +/- 0.42
a   1.27437369 +/- 0.00694          Node   113.73169 +/- 0.055
e   0.1206816 +/- 0.00318           Incl.    1.31520 +/- 0.028
P   1.44/525.45d           H 26.4   G  0.15   U  9.3  
q 1.12058018 +/- 0.00204    Q 1.42816720 +/- 0.0117
From 10 observations 2020 July 29-Aug. 11; mean residual 0".09
Residuals in arcseconds: 
200729 F51  .05-  .14+    200810 F51  .04-  .16-    200811 F51  .11-  .01-    
200729 F51  .04+  .13-    200810 F51  .01-  .11+    200811 F51  .04+  .03+    
200729 F51  .01-  .07+    200810 F51  .01+  .08-    
200729 F51  .03+  .08-    200811 F51  .19+  .03+    

Ephemerides (geocentric):
Date (UTC) HH   RA              Dec         delta   r     elong  mag " sig PA
---- -- -- --  -------------   -----------  ------ ------ -----  --- ---- ---
2020 08 11 22  21 12 09.382   -21 46 19.73  .11828 1.1307 172.3 22.5 1.26 145
2020 08 11 23  21 12 10.607   -21 46 34.19  .11833 1.1307 172.3 22.5 1.26 145
2020 08 12 00  21 12 11.833   -21 46 48.61  .11837 1.1308 172.3 22.5 1.25 145
2020 08 12 01  21 12 13.058   -21 47 02.98  .11842 1.1308 172.3 22.5 1.25 145
2020 08 12 02  21 12 14.283   -21 47 17.32  .11846 1.1308 172.2 22.5 1.24 145
2020 08 12 03  21 12 15.509   -21 47 31.62  .11851 1.1309 172.2 22.5 1.23 145
2020 08 12 04  21 12 16.734   -21 47 45.88  .11856 1.1309 172.2 22.5 1.23 145
2020 08 12 05  21 12 17.959   -21 48 00.11  .11860 1.1309 172.1 22.5 1.22 145
2020 08 12 06  21 12 19.185   -21 48 14.29  .11865 1.1309 172.1 22.5 1.22 145
2020 08 12 07  21 12 20.410   -21 48 28.43  .11869 1.1310 172.1 22.5 1.21 146
2020 08 12 08  21 12 21.635   -21 48 42.53  .11874 1.1310 172.0 22.5 1.20 146
2020 08 12 09  21 12 22.860   -21 48 56.59  .11879 1.1310 172.0 22.5 1.20 146
2020 08 12 10  21 12 24.086   -21 49 10.62  .11883 1.1311 172.0 22.5 1.19 146
2020 08 12 11  21 12 25.311   -21 49 24.60  .11888 1.1311 172.0 22.5 1.19 146
2020 08 12 12  21 12 26.536   -21 49 38.54  .11893 1.1311 171.9 22.5 1.18 146
2020 08 12 13  21 12 27.762   -21 49 52.44  .11897 1.1312 171.9 22.5 1.17 146
2020 08 12 14  21 12 28.987   -21 50 06.31  .11902 1.1312 171.9 22.5 1.17 146
2020 08 12 15  21 12 30.213   -21 50 20.13  .11907 1.1312 171.8 22.5 1.16 146
2020 08 12 16  21 12 31.438   -21 50 33.91  .11911 1.1313 171.8 22.5 1.16 146
2020 08 12 17  21 12 32.664   -21 50 47.65  .11916 1.1313 171.8 22.5 1.15 147
2020 08 12 18  21 12 33.890   -21 51 01.36  .11921 1.1313 171.7 22.5 1.14 147
2020 08 12 19  21 12 35.116   -21 51 15.02  .11926 1.1314 171.7 22.5 1.14 147
2020 08 12 20  21 12 36.342   -21 51 28.64  .11930 1.1314 171.7 22.5 1.13 147
2020 08 12 21  21 12 37.568   -21 51 42.22  .11935 1.1314 171.6 22.5 1.13 147
2020 08 12 22  21 12 38.794   -21 51 55.76  .11940 1.1315 171.6 22.5 1.12 147
2020 08 12 23  21 12 40.020   -21 52 09.26  .11945 1.1315 171.6 22.5 1.11 147
2020 08 13 00  21 12 41.247   -21 52 22.72  .11949 1.1315 171.6 22.5 1.11 148
2020 08 13 01  21 12 42.473   -21 52 36.14  .11954 1.1315 171.5 22.6 1.10 148
2020 08 13 02  21 12 43.700   -21 52 49.52  .11959 1.1316 171.5 22.6 1.10 148
2020 08 13 03  21 12 44.927   -21 53 02.86  .11964 1.1316 171.5 22.6 1.09 148
2020 08 13 04  21 12 46.154   -21 53 16.16  .11969 1.1316 171.4 22.6 1.09 148
2020 08 13 05  21 12 47.382   -21 53 29.41  .11974 1.1317 171.4 22.6 1.08 149
2020 08 13 06  21 12 48.609   -21 53 42.63  .11978 1.1317 171.4 22.6 1.07 149
2020 08 13 07  21 12 49.837   -21 53 55.80  .11983 1.1317 171.3 22.6 1.07 149
2020 08 13 08  21 12 51.065   -21 54 08.94  .11988 1.1318 171.3 22.6 1.06 149
2020 08 13 09  21 12 52.293   -21 54 22.03  .11993 1.1318 171.3 22.6 1.06 149
2020 08 13 10  21 12 53.522   -21 54 35.08  .11998 1.1318 171.2 22.6 1.05 150
2020 08 13 11  21 12 54.750   -21 54 48.09  .12003 1.1319 171.2 22.6 1.05 150
2020 08 13 12  21 12 55.979   -21 55 01.06  .12008 1.1319 171.2 22.6 1.04 150
2020 08 13 13  21 12 57.208   -21 55 13.99  .12013 1.1319 171.1 22.6 1.04 150
2020 08 13 14  21 12 58.438   -21 55 26.87  .12017 1.1320 171.1 22.6 1.03 151
2020 08 13 15  21 12 59.668   -21 55 39.72  .12022 1.1320 171.1 22.6 1.03 151
2020 08 13 16  21 13 00.898   -21 55 52.52  .12027 1.1320 171.1 22.6 1.02 151
2020 08 13 17  21 13 02.128   -21 56 05.29  .12032 1.1321 171.0 22.6 1.01 152
2020 08 13 18  21 13 03.359   -21 56 18.01  .12037 1.1321 171.0 22.6 1.01 152
2020 08 13 19  21 13 04.589   -21 56 30.69  .12042 1.1321 171.0 22.6 1.00 152
2020 08 13 20  21 13 05.821   -21 56 43.33  .12047 1.1322 170.9 22.6 1.00 153
2020 08 13 21  21 13 07.052   -21 56 55.92  .12052 1.1322 170.9 22.6 0.99 153